Station Historical Data
Daily Summary for January 12, 2017 Units:  Metric    English   Both
Next Day »
Daily Weekly Monthly Yearly Custom
  High: Low: Average:
Temperature: 3.6 °C 0.9 °C 2.4 °C
Dew Point: 3.1 °C 0.3 °C 1.8 °C
Humidity: 96% 96% 96%
Wind Speed: 12.9km/h 0km/h 0.2km/h
Wind Gust: 19.3km/h - -
Wind- - SSW
Pressure: 1019.9 hPa 1011.4 hPa -
Precipitation: 0 mm    
Historical Graphs
 
 
Tabular Data for January 12, 2017
Time Temperature Dew Point Pressure Wind Wind Speed Wind Gust Humidity Rainfall Rate (Hourly) solar Conditions
00:03 2.1 °C 1.5 °C 1014.4 hPa Calm   1.6 km/h 96% 0 mm 0.00 W/m2
00:08 2.1 °C 1.5 °C 1014.1 hPa Calm   1.6 km/h 96% 0 mm 0.00 W/m2
00:13 2 °C 1.4 °C 1014.1 hPa Calm     96% 0 mm 0.00 W/m2
00:18 2 °C 1.4 °C 1014.1 hPa Calm     96% 0 mm 0.00 W/m2
00:23 2 °C 1.4 °C 1014.1 hPa Calm     96% 0 mm 0.00 W/m2
00:28 2 °C 1.4 °C 1014.1 hPa Calm   1.6 km/h 96% 0 mm 0.00 W/m2
00:33 2 °C 1.4 °C 1013.8 hPa Calm   1.6 km/h 96% 0 mm 0.00 W/m2
00:38 2 °C 1.4 °C 1013.8 hPa Calm   1.6 km/h 96% 0 mm 0.00 W/m2
00:43 2 °C 1.4 °C 1013.8 hPa Calm   1.6 km/h 96% 0 mm 0.00 W/m2
00:48 2.1 °C 1.5 °C 1013.8 hPa Calm     96% 0 mm 0.00 W/m2
00:53 2.1 °C 1.5 °C 1013.8 hPa Calm   1.6 km/h 96% 0 mm 0.00 W/m2
00:58 2.1 °C 1.5 °C 1013.8 hPa Calm     96% 0 mm 0.00 W/m2
01:00 2.1 °C 1.5 °C 1013.8 hPa Calm   1.6 km/h 96% 0 mm 0.00 W/m2
01:05 2.1 °C 1.6 °C 1013.8 hPa Calm   14.5 km/h 96% 0 mm 0.00 W/m2
01:10 2.1 °C 1.6 °C 1013.8 hPa ESE 12.9 km/h 17.7 km/h 96% 0 mm 0.00 W/m2
01:15 2.2 °C 1.6 °C 1013.8 hPa Calm   14.5 km/h 96% 0 mm 0.00 W/m2
01:20 2.2 °C 1.6 °C 1013.8 hPa Calm   19.3 km/h 96% 0 mm 0.00 W/m2
01:25 2.2 °C 1.7 °C 1013.8 hPa Calm   14.5 km/h 96% 0 mm 0.00 W/m2
01:30 2.2 °C 1.7 °C 1013.8 hPa Calm     96% 0 mm 0.00 W/m2
01:35 2.2 °C 1.7 °C 1013.8 hPa Calm   1.6 km/h 96% 0 mm 0.00 W/m2
01:40 2.2 °C 1.7 °C 1013.8 hPa Calm   11.3 km/h 96% 0 mm 0.00 W/m2
01:45 2.2 °C 1.7 °C 1013.8 hPa Calm   1.6 km/h 96% 0 mm 0.00 W/m2
01:50 2.2 °C 1.7 °C 1013.8 hPa Calm     96% 0 mm 0.00 W/m2
01:55 2.2 °C 1.7 °C 1013.8 hPa Calm     96% 0 mm 0.00 W/m2
02:00 2.2 °C 1.7 °C 1013.8 hPa Calm   1.6 km/h 96% 0 mm 0.00 W/m2
02:05 2.3 °C 1.7 °C 1013.8 hPa Calm   1.6 km/h 96% 0 mm 0.00 W/m2
02:10 2.3 °C 1.7 °C 1013.8 hPa Calm   1.6 km/h 96% 0 mm 0.00 W/m2
02:15 2.3 °C 1.7 °C 1013.8 hPa Calm     96% 0 mm 0.00 W/m2
02:20 2.3 °C 1.8 °C 1013.8 hPa Calm     96% 0 mm 0.00 W/m2
02:25 2.3 °C 1.8 °C 1013.8 hPa Calm     96% 0 mm 0.00 W/m2
02:30 2.4 °C 1.8 °C 1013.8 hPa Calm   1.6 km/h 96% 0 mm 0.00 W/m2
02:35 2.4 °C 1.8 °C 1013.8 hPa Calm   1.6 km/h 96% 0 mm 0.00 W/m2
02:40 2.4 °C 1.9 °C 1013.8 hPa ESE 1.6 km/h 1.6 km/h 96% 0 mm 0.00 W/m2
02:45 2.4 °C 1.9 °C 1013.8 hPa Calm   1.6 km/h 96% 0 mm 0.00 W/m2
02:50 2.4 °C 1.9 °C 1013.4 hPa Calm   1.6 km/h 96% 0 mm 0.00 W/m2
02:55 2.5 °C 1.9 °C 1013.8 hPa Calm   1.6 km/h 96% 0 mm 0.00 W/m2
03:00 2.5 °C 1.9 °C 1013.4 hPa Calm   1.6 km/h 96% 0 mm 0.00 W/m2
03:05 2.6 °C 2 °C 1013.4 hPa Calm     96% 0 mm 0.00 W/m2
03:10 2.6 °C 2 °C 1013.4 hPa Calm     96% 0 mm 0.00 W/m2
03:15 2.6 °C 2 °C 1013.4 hPa Calm     96% 0 mm 0.00 W/m2
03:20 2.6 °C 2.1 °C 1013.4 hPa Calm     96% 0 mm 0.00 W/m2
03:25 2.6 °C 2.1 °C 1013.4 hPa Calm     96% 0 mm 0.00 W/m2
03:30 2.6 °C 2.1 °C 1013.1 hPa Calm     96% 0 mm 0.00 W/m2
03:35 2.6 °C 2.1 °C 1013.1 hPa Calm     96% 0 mm 0.00 W/m2
03:40 2.6 °C 2.1 °C 1013.1 hPa Calm     96% 0 mm 0.00 W/m2
03:45 2.6 °C 2.1 °C 1013.1 hPa Calm     96% 0 mm 0.00 W/m2
03:47 2.7 °C 2.1 °C 1012.8 hPa Calm     96% 0 mm 0.00 W/m2
03:52 2.7 °C 2.1 °C 1012.8 hPa Calm     96% 0 mm 0.00 W/m2
03:57 2.7 °C 2.1 °C 1012.8 hPa Calm     96% 0 mm 0.00 W/m2
04:02 2.7 °C 2.1 °C 1012.8 hPa Calm     96% 0 mm 0.00 W/m2
04:07 2.6 °C 2.1 °C 1012.4 hPa Calm     96% 0 mm 0.00 W/m2
04:12 2.6 °C 2.1 °C 1012.4 hPa Calm     96% 0 mm 0.00 W/m2
04:17 2.6 °C 2.1 °C 1012.4 hPa Calm     96% 0 mm 0.00 W/m2
04:22 2.6 °C 2 °C 1012.4 hPa Calm     96% 0 mm 0.00 W/m2
04:27 2.6 °C 2 °C 1012.4 hPa Calm     96% 0 mm 0.00 W/m2
04:32 2.6 °C 2 °C 1012.4 hPa Calm     96% 0 mm 0.00 W/m2
04:37 2.6 °C 2 °C 1012.1 hPa Calm     96% 0 mm 0.00 W/m2
04:42 2.6 °C 2.1 °C 1012.1 hPa Calm     96% 0 mm 0.00 W/m2
04:47 2.6 °C 2.1 °C 1012.1 hPa Calm     96% 0 mm 0.00 W/m2
04:52 2.6 °C 2.1 °C 1012.1 hPa Calm     96% 0 mm 0.00 W/m2
04:57 2.6 °C 2 °C 1012.1 hPa Calm     96% 0 mm 0.00 W/m2
05:02 2.6 °C 2 °C 1012.1 hPa Calm     96% 0 mm 0.00 W/m2
05:07 2.6 °C 2 °C 1011.7 hPa Calm   1.6 km/h 96% 0 mm 0.00 W/m2
05:12 2.5 °C 1.9 °C 1011.7 hPa Calm   1.6 km/h 96% 0 mm 0.00 W/m2
05:17 2.5 °C 1.9 °C 1011.4 hPa Calm   1.6 km/h 96% 0 mm 0.00 W/m2
05:22 2.4 °C 1.9 °C 1011.7 hPa Calm     96% 0 mm 0.00 W/m2
05:27 2.4 °C 1.9 °C 1011.7 hPa Calm   1.6 km/h 96% 0 mm 0.00 W/m2
05:32 2.4 °C 1.9 °C 1011.7 hPa Calm   1.6 km/h 96% 0 mm 0.00 W/m2
05:37 2.4 °C 1.9 °C 1011.7 hPa Calm     96% 0 mm 0.00 W/m2
05:42 2.4 °C 1.9 °C 1011.7 hPa Calm     96% 0 mm 0.00 W/m2
05:47 2.4 °C 1.9 °C 1011.7 hPa Calm   1.6 km/h 96% 0 mm 0.00 W/m2
05:52 2.5 °C 1.9 °C 1012.1 hPa Calm   1.6 km/h 96% 0 mm 0.00 W/m2
05:57 2.5 °C 1.9 °C 1012.1 hPa Calm   1.6 km/h 96% 0 mm 0.00 W/m2
06:02 2.5 °C 1.9 °C 1012.1 hPa Calm   1.6 km/h 96% 0 mm 0.00 W/m2
06:07 2.5 °C 1.9 °C 1012.1 hPa Calm   1.6 km/h 96% 0 mm 0.00 W/m2
06:12 2.6 °C 2 °C 1012.1 hPa Calm   1.6 km/h 96% 0 mm 0.00 W/m2
06:17 2.6 °C 2 °C 1012.1 hPa Calm   1.6 km/h 96% 0 mm 0.00 W/m2
06:22 2.6 °C 2 °C 1012.1 hPa Calm   1.6 km/h 96% 0 mm 0.00 W/m2
06:27 2.6 °C 2 °C 1012.1 hPa Calm   1.6 km/h 96% 0 mm 0.00 W/m2
06:32 2.6 °C 2.1 °C 1012.1 hPa Calm   1.6 km/h 96% 0 mm 0.00 W/m2
06:37 2.6 °C 2.1 °C 1012.1 hPa Calm   8 km/h 96% 0 mm 0.00 W/m2
06:42 2.6 °C 2.1 °C 1012.1 hPa Calm   1.6 km/h 96% 0 mm 0.00 W/m2
06:47 2.6 °C 2.1 °C 1012.1 hPa Calm   19.3 km/h 96% 0 mm 0.00 W/m2
06:52 2.6 °C 2.1 °C 1012.1 hPa Calm   1.6 km/h 96% 0 mm 0.00 W/m2
06:57 2.6 °C 2.1 °C 1012.1 hPa Calm     96% 0 mm 0.00 W/m2
07:03 2.6 °C 2.1 °C 1012.1 hPa ESE 9.7 km/h 17.7 km/h 96% 0 mm 0.00 W/m2
07:08 2.6 °C 2 °C 1012.1 hPa Calm     96% 0 mm 0.00 W/m2
07:13 2.6 °C 2 °C 1012.4 hPa Calm   1.6 km/h 96% 0 mm 0.00 W/m2
07:18 2.6 °C 2 °C 1012.4 hPa Calm   3.2 km/h 96% 0 mm 0.00 W/m2
07:23 2.6 °C 2 °C 1012.4 hPa Calm     96% 0 mm 0.00 W/m2
07:28 2.5 °C 1.9 °C 1012.4 hPa Calm     96% 0 mm 0.00 W/m2
07:33 2.5 °C 1.9 °C 1012.4 hPa Calm     96% 0 mm 0.00 W/m2
07:38 2.4 °C 1.9 °C 1012.8 hPa Calm     96% 0 mm 0.00 W/m2
07:43 2.4 °C 1.9 °C 1012.8 hPa Calm     96% 0 mm 0.00 W/m2
07:48 2.4 °C 1.9 °C 1012.8 hPa Calm     96% 0 mm 5.00 W/m2
07:53 2.4 °C 1.9 °C 1012.8 hPa Calm     96% 0 mm 5.00 W/m2
07:58 2.4 °C 1.9 °C 1012.8 hPa Calm     96% 0 mm 7.00 W/m2
08:03 2.4 °C 1.9 °C 1012.8 hPa Calm     96% 0 mm 7.00 W/m2
08:08 2.4 °C 1.9 °C 1013.1 hPa Calm     96% 0 mm 11.00 W/m2
08:13 2.4 °C 1.9 °C 1013.1 hPa Calm     96% 0 mm 11.00 W/m2
08:18 2.5 °C 1.9 °C 1013.4 hPa Calm     96% 1.27 mm 11.00 W/m2
08:23 2.5 °C 1.9 °C 1013.4 hPa Calm     96% 1.27 mm 12.00 W/m2
08:28 2.5 °C 1.9 °C 1013.4 hPa Calm     96% 1.27 mm 16.00 W/m2
08:33 2.6 °C 2 °C 1013.8 hPa Calm     96% 1.02 mm 16.00 W/m2
08:38 2.6 °C 2 °C 1013.8 hPa Calm     96% 1.02 mm 16.00 W/m2
08:43 2.6 °C 2 °C 1013.8 hPa Calm     96% 1.52 mm 16.00 W/m2
08:48 2.6 °C 2 °C 1013.8 hPa Calm     96% 1.52 mm 23.00 W/m2
08:53 2.5 °C 1.9 °C 1013.8 hPa Calm     96% 1.52 mm 21.00 W/m2
08:58 2.4 °C 1.9 °C 1014.1 hPa Calm     96% 1.52 mm 18.00 W/m2
09:03 2.4 °C 1.9 °C 1014.1 hPa Calm     96% 1.02 mm 25.00 W/m2
09:08 2.4 °C 1.8 °C 1014.1 hPa Calm     96% 1.02 mm 28.00 W/m2
09:13 2.4 °C 1.8 °C 1014.1 hPa Calm     96% 1.02 mm 28.00 W/m2
09:18 2.3 °C 1.8 °C 1014.4 hPa Calm     96% 1.02 mm 30.00 W/m2
09:23 2.3 °C 1.7 °C 1014.4 hPa Calm     96% 0 mm 39.00 W/m2
09:28 2.2 °C 1.7 °C 1014.4 hPa Calm     96% 0 mm 54.00 W/m2
09:33 2.2 °C 1.7 °C 1014.4 hPa Calm     96% 1.52 mm 81.00 W/m2
09:38 2.2 °C 1.6 °C 1014.8 hPa Calm     96% 1.52 mm 69.00 W/m2
09:43 2.1 °C 1.5 °C 1014.8 hPa Calm     96% 1.52 mm 90.00 W/m2
09:48 2 °C 1.4 °C 1014.8 hPa Calm     96% 1.27 mm 111.00 W/m2
09:53 2 °C 1.4 °C 1014.8 hPa Calm     96% 1.27 mm 121.00 W/m2
09:58 2 °C 1.4 °C 1014.8 hPa Calm     96% 1.27 mm 88.00 W/m2
10:03 2 °C 1.4 °C 1014.8 hPa Calm     96% 0 mm 86.00 W/m2
10:08 2 °C 1.4 °C 1014.8 hPa Calm     96% 0 mm 91.00 W/m2
10:13 2 °C 1.4 °C 1015.1 hPa Calm     96% 0 mm 93.00 W/m2
10:18 2 °C 1.4 °C 1015.1 hPa Calm     96% 0 mm 86.00 W/m2
10:23 2 °C 1.4 °C 1015.1 hPa Calm     96% 0 mm 84.00 W/m2
10:28 2.1 °C 1.5 °C 1015.1 hPa Calm     96% 0 mm 84.00 W/m2
10:33 2 °C 1.4 °C 1015.1 hPa Calm     96% 0 mm 95.00 W/m2
10:38 2 °C 1.4 °C 1015.1 hPa Calm     96% 0 mm 90.00 W/m2
10:43 2.1 °C 1.5 °C 1015.1 hPa Calm     96% 0 mm 113.00 W/m2
10:48 2.1 °C 1.5 °C 1015.1 hPa Calm     96% 0 mm 109.00 W/m2
10:53 2.1 °C 1.6 °C 1015.1 hPa Calm     96% 0 mm 111.00 W/m2
10:58 2.2 °C 1.6 °C 1015.1 hPa Calm     96% 0 mm 113.00 W/m2
11:03 2.2 °C 1.6 °C 1014.8 hPa Calm     96% 0 mm 156.00 W/m2
11:08 2.2 °C 1.6 °C 1014.8 hPa Calm     96% 0 mm 163.00 W/m2
11:13 2.2 °C 1.6 °C 1014.8 hPa Calm     96% 0 mm 151.00 W/m2
11:18 2.2 °C 1.7 °C 1014.8 hPa Calm     96% 0 mm 167.00 W/m2
11:23 2.3 °C 1.7 °C 1014.8 hPa Calm     96% 0 mm 120.00 W/m2
11:28 2.3 °C 1.8 °C 1014.8 hPa Calm     96% 0 mm 109.00 W/m2
11:33 2.4 °C 1.8 °C 1014.8 hPa Calm     96% 0 mm 118.00 W/m2
11:38 2.4 °C 1.8 °C 1014.4 hPa Calm     96% 0 mm 98.00 W/m2
11:43 2.4 °C 1.9 °C 1014.4 hPa Calm     96% 0 mm 120.00 W/m2
11:48 2.4 °C 1.9 °C 1014.4 hPa Calm     96% 0 mm 113.00 W/m2
11:53 2.5 °C 1.9 °C 1014.4 hPa Calm     96% 0 mm 97.00 W/m2
11:58 2.5 °C 1.9 °C 1014.4 hPa Calm     96% 0 mm 125.00 W/m2
12:03 2.5 °C 1.9 °C 1014.1 hPa Calm     96% 0 mm 137.00 W/m2
12:09 2.6 °C 2 °C 1014.1 hPa Calm     96% 0 mm 148.00 W/m2
12:13 2.6 °C 2.1 °C 1014.1 hPa Calm     96% 0 mm 165.00 W/m2
12:19 2.7 °C 2.1 °C 1014.1 hPa Calm     96% 0 mm 167.00 W/m2
12:24 2.7 °C 2.1 °C 1014.1 hPa Calm     96% 0 mm 102.00 W/m2
12:29 2.7 °C 2.1 °C 1014.1 hPa Calm   1.6 km/h 96% 0 mm 97.00 W/m2
12:34 2.7 °C 2.2 °C 1014.1 hPa Calm     96% 0 mm 132.00 W/m2
12:39 2.7 °C 2.2 °C 1014.1 hPa Calm     96% 0 mm 128.00 W/m2
12:44 2.8 °C 2.2 °C 1014.1 hPa Calm     96% 0 mm 167.00 W/m2
12:49 2.8 °C 2.2 °C 1014.1 hPa Calm     96% 0 mm 239.00 W/m2
12:54 2.8 °C 2.2 °C 1014.1 hPa Calm     96% 0 mm 199.00 W/m2
12:59 2.8 °C 2.3 °C 1014.1 hPa Calm     96% 0 mm 199.00 W/m2
13:04 2.9 °C 2.3 °C 1014.1 hPa Calm     96% 0 mm 183.00 W/m2
13:09 2.9 °C 2.4 °C 1014.1 hPa Calm     96% 0 mm 130.00 W/m2
13:14 2.9 °C 2.4 °C 1014.1 hPa Calm     96% 0 mm 148.00 W/m2
13:19 2.9 °C 2.4 °C 1014.1 hPa Calm     96% 0 mm 137.00 W/m2
13:24 3 °C 2.4 °C 1014.1 hPa Calm     96% 0 mm 134.00 W/m2
13:29 3 °C 2.4 °C 1014.1 hPa Calm     96% 0 mm 98.00 W/m2
13:34 3.1 °C 2.5 °C 1014.1 hPa Calm     96% 0 mm 116.00 W/m2
13:39 3.1 °C 2.5 °C 1014.1 hPa Calm     96% 0 mm 113.00 W/m2
13:44 3.1 °C 2.5 °C 1014.1 hPa Calm     96% 0 mm 118.00 W/m2
13:49 3.1 °C 2.5 °C 1014.1 hPa Calm     96% 0 mm 134.00 W/m2
13:54 3.1 °C 2.5 °C 1014.1 hPa Calm     96% 0 mm 127.00 W/m2
13:59 3.1 °C 2.6 °C 1014.1 hPa Calm     96% 0 mm 118.00 W/m2
14:04 3.2 °C 2.6 °C 1014.1 hPa Calm     96% 0 mm 111.00 W/m2
14:09 3.2 °C 2.7 °C 1014.1 hPa Calm     96% 0 mm 163.00 W/m2
14:14 3.3 °C 2.7 °C 1014.1 hPa Calm     96% 0 mm 160.00 W/m2
14:19 3.3 °C 2.7 °C 1014.1 hPa Calm     96% 0 mm 148.00 W/m2
14:24 3.3 °C 2.8 °C 1014.4 hPa Calm     96% 0 mm 72.00 W/m2
14:29 3.3 °C 2.8 °C 1014.4 hPa Calm     96% 0 mm 53.00 W/m2
14:34 3.3 °C 2.8 °C 1014.4 hPa Calm     96% 0 mm 77.00 W/m2
14:39 3.3 °C 2.8 °C 1014.8 hPa Calm     96% 0 mm 91.00 W/m2
14:44 3.3 °C 2.8 °C 1014.4 hPa Calm     96% 0 mm 130.00 W/m2
14:49 3.3 °C 2.8 °C 1014.8 hPa Calm     96% 0 mm 174.00 W/m2
14:54 3.4 °C 2.8 °C 1014.8 hPa Calm     96% 0 mm 141.00 W/m2
14:59 3.4 °C 2.8 °C 1014.8 hPa Calm     96% 0 mm 104.00 W/m2
15:04 3.4 °C 2.9 °C 1015.1 hPa Calm     96% 0 mm 116.00 W/m2
15:09 3.4 °C 2.9 °C 1015.1 hPa Calm     96% 0 mm 128.00 W/m2
15:14 3.5 °C 2.9 °C 1015.1 hPa Calm     96% 0 mm 114.00 W/m2
15:20 3.5 °C 2.9 °C 1015.1 hPa Calm     96% 0 mm 109.00 W/m2
15:25 3.5 °C 2.9 °C 1015.1 hPa Calm     96% 0 mm 90.00 W/m2
15:30 3.6 °C 3 °C 1015.5 hPa Calm     96% 0 mm 65.00 W/m2
15:35 3.6 °C 3 °C 1015.5 hPa Calm     96% 0 mm 60.00 W/m2
15:40 3.6 °C 3.1 °C 1015.5 hPa Calm     96% 0 mm 62.00 W/m2
15:45 3.6 °C 3.1 °C 1015.5 hPa Calm     96% 0 mm 54.00 W/m2
15:50 3.6 °C 3.1 °C 1015.5 hPa Calm     96% 0 mm 90.00 W/m2
15:55 3.6 °C 3.1 °C 1015.5 hPa Calm     96% 0 mm 76.00 W/m2
16:00 3.6 °C 3 °C 1015.5 hPa Calm     96% 0 mm 54.00 W/m2
16:05 3.6 °C 3 °C 1015.8 hPa Calm     96% 0 mm 56.00 W/m2
16:10 3.6 °C 3 °C 1015.8 hPa Calm     96% 0 mm 53.00 W/m2
16:15 3.6 °C 3 °C 1015.8 hPa Calm     96% 0 mm 25.00 W/m2
16:20 3.6 °C 3 °C 1015.8 hPa Calm     96% 0 mm 25.00 W/m2
16:25 3.6 °C 3 °C 1015.8 hPa Calm     96% 0 mm 21.00 W/m2
16:30 3.6 °C 3 °C 1015.8 hPa Calm     96% 0 mm 18.00 W/m2
16:35 3.6 °C 3 °C 1015.8 hPa Calm     96% 0 mm 14.00 W/m2
16:40 3.6 °C 3 °C 1015.8 hPa Calm     96% 0 mm 11.00 W/m2
16:45 3.5 °C 2.9 °C 1015.8 hPa Calm     96% 0 mm 9.00 W/m2
16:50 3.5 °C 2.9 °C 1015.8 hPa Calm     96% 0 mm 7.00 W/m2
16:55 3.4 °C 2.9 °C 1015.8 hPa Calm     96% 0 mm 5.00 W/m2
17:00 3.3 °C 2.8 °C 1016.1 hPa Calm     96% 0 mm 5.00 W/m2
17:05 3.3 °C 2.8 °C 1016.1 hPa Calm     96% 0 mm 0.00 W/m2
17:10 3.3 °C 2.7 °C 1016.1 hPa Calm     96% 0 mm 0.00 W/m2
17:15 3.2 °C 2.7 °C 1016.1 hPa Calm     96% 0 mm 0.00 W/m2
17:20 3.2 °C 2.6 °C 1016.1 hPa Calm     96% 0 mm 0.00 W/m2
17:25 3.2 °C 2.6 °C 1016.1 hPa Calm     96% 0 mm 0.00 W/m2
17:30 3.2 °C 2.6 °C 1016.1 hPa Calm     96% 0 mm 0.00 W/m2
17:35 3.1 °C 2.6 °C 1016.1 hPa Calm     96% 0 mm 0.00 W/m2
17:40 3.1 °C 2.5 °C 1016.1 hPa Calm     96% 0 mm 0.00 W/m2
17:45 3.1 °C 2.5 °C 1016.5 hPa Calm     96% 0 mm 0.00 W/m2
17:50 2.9 °C 2.4 °C 1016.5 hPa Calm     96% 0 mm 0.00 W/m2
17:55 2.9 °C 2.3 °C 1016.5 hPa Calm     96% 0 mm 0.00 W/m2
18:00 2.8 °C 2.3 °C 1016.5 hPa Calm     96% 0 mm 0.00 W/m2
18:05 2.8 °C 2.3 °C 1016.8 hPa Calm     96% 0 mm 0.00 W/m2
18:10 2.8 °C 2.3 °C 1016.5 hPa Calm     96% 0 mm 0.00 W/m2
18:15 2.8 °C 2.2 °C 1016.5 hPa Calm     96% 0 mm 0.00 W/m2
18:20 2.8 °C 2.2 °C 1016.5 hPa Calm     96% 0 mm 0.00 W/m2
18:25 2.8 °C 2.2 °C 1016.5 hPa Calm     96% 0 mm 0.00 W/m2
18:30 2.8 °C 2.2 °C 1016.8 hPa Calm     96% 0 mm 0.00 W/m2
18:35 2.8 °C 2.2 °C 1016.8 hPa Calm     96% 0 mm 0.00 W/m2
18:40 2.7 °C 2.1 °C 1016.8 hPa Calm     96% 0 mm 0.00 W/m2
18:45 2.6 °C 2.1 °C 1016.8 hPa Calm     96% 0 mm 0.00 W/m2
18:50 2.6 °C 2.1 °C 1016.8 hPa Calm     96% 0 mm 0.00 W/m2
18:55 2.6 °C 2 °C 1016.8 hPa Calm     96% 0 mm 0.00 W/m2
19:00 2.4 °C 1.9 °C 1017.2 hPa Calm     96% 0 mm 0.00 W/m2
19:05 2.4 °C 1.8 °C 1017.2 hPa Calm     96% 0 mm 0.00 W/m2
19:10 2.3 °C 1.8 °C 1017.2 hPa Calm     96% 0 mm 0.00 W/m2
19:15 2.3 °C 1.7 °C 1017.2 hPa Calm     96% 0 mm 0.00 W/m2
19:20 2.1 °C 1.6 °C 1017.2 hPa Calm     96% 0 mm 0.00 W/m2
19:25 1.9 °C 1.4 °C 1017.2 hPa Calm     96% 0 mm 0.00 W/m2
19:30 1.8 °C 1.3 °C 1017.2 hPa Calm     96% 0 mm 0.00 W/m2
19:35 1.8 °C 1.2 °C 1017.2 hPa Calm     96% 0 mm 0.00 W/m2
19:41 1.7 °C 1.2 °C 1017.5 hPa Calm     96% 0 mm 0.00 W/m2
19:46 1.7 °C 1.1 °C 1017.5 hPa Calm     96% 0 mm 0.00 W/m2
19:51 1.7 °C 1.1 °C 1017.5 hPa Calm     96% 0 mm 0.00 W/m2
19:56 1.7 °C 1.1 °C 1017.8 hPa Calm     96% 0 mm 0.00 W/m2
20:01 1.6 °C 1.1 °C 1017.8 hPa Calm     96% 0 mm 0.00 W/m2
20:06 1.6 °C 1.1 °C 1017.8 hPa Calm     96% 0 mm 0.00 W/m2
20:11 1.7 °C 1.1 °C 1017.8 hPa Calm     96% 0 mm 0.00 W/m2
20:16 1.7 °C 1.1 °C 1017.8 hPa Calm     96% 0 mm 0.00 W/m2
20:21 1.6 °C 1.1 °C 1017.8 hPa Calm     96% 0 mm 0.00 W/m2
20:26 1.6 °C 1 °C 1017.8 hPa Calm     96% 0 mm 0.00 W/m2
20:31 1.5 °C 0.9 °C 1017.8 hPa Calm     96% 0 mm 0.00 W/m2
20:36 1.4 °C 0.9 °C 1017.8 hPa Calm     96% 0 mm 0.00 W/m2
20:41 1.4 °C 0.8 °C 1017.8 hPa Calm     96% 0 mm 0.00 W/m2
20:46 1.3 °C 0.8 °C 1018.2 hPa Calm     96% 0 mm 0.00 W/m2
20:51 1.2 °C 0.7 °C 1018.2 hPa Calm     96% 0 mm 0.00 W/m2
20:56 1.2 °C 0.6 °C 1018.2 hPa Calm     96% 0 mm 0.00 W/m2
21:01 1.2 °C 0.6 °C 1018.5 hPa Calm     96% 0 mm 0.00 W/m2
21:06 1.2 °C 0.6 °C 1018.5 hPa Calm     96% 0 mm 0.00 W/m2
21:11 1.2 °C 0.6 °C 1018.5 hPa Calm     96% 0 mm 0.00 W/m2
21:16 1.2 °C 0.6 °C 1018.5 hPa Calm     96% 0 mm 0.00 W/m2
21:21 1.2 °C 0.6 °C 1018.5 hPa Calm     96% 0 mm 0.00 W/m2
21:22 1.2 °C 0.6 °C 1018.5 hPa Calm     96% 0 mm 0.00 W/m2
21:27 1.2 °C 0.7 °C 1018.8 hPa Calm     96% 0 mm 0.00 W/m2
21:32 1.2 °C 0.7 °C 1018.8 hPa Calm     96% 0 mm 0.00 W/m2
21:37 1.3 °C 0.7 °C 1018.8 hPa Calm     96% 0 mm 0.00 W/m2
21:42 1.3 °C 0.7 °C 1018.8 hPa Calm     96% 0 mm 0.00 W/m2
21:47 1.3 °C 0.8 °C 1018.8 hPa Calm     96% 0 mm 0.00 W/m2
21:52 1.3 °C 0.8 °C 1018.8 hPa Calm     96% 0 mm 0.00 W/m2
21:57 1.3 °C 0.8 °C 1018.8 hPa Calm     96% 0 mm 0.00 W/m2
22:03 1.4 °C 0.8 °C 1018.8 hPa Calm     96% 0 mm 0.00 W/m2
22:08 1.4 °C 0.8 °C 1018.8 hPa Calm     96% 0 mm 0.00 W/m2
22:13 1.4 °C 0.8 °C 1018.8 hPa Calm     96% 0 mm 0.00 W/m2
22:18 1.4 °C 0.9 °C 1018.8 hPa Calm     96% 0 mm 0.00 W/m2
22:23 1.4 °C 0.8 °C 1019.2 hPa Calm   1.6 km/h 96% 0 mm 0.00 W/m2
22:28 1.3 °C 0.8 °C 1019.2 hPa Calm     96% 0 mm 0.00 W/m2
22:33 1.3 °C 0.7 °C 1019.2 hPa Calm     96% 0 mm 0.00 W/m2
22:38 1.2 °C 0.7 °C 1019.2 hPa Calm     96% 0 mm 0.00 W/m2
22:43 1.2 °C 0.7 °C 1019.2 hPa Calm     96% 0 mm 0.00 W/m2
22:48 1.2 °C 0.6 °C 1019.2 hPa Calm     96% 0 mm 0.00 W/m2
22:53 1.1 °C 0.5 °C 1019.2 hPa Calm     96% 0 mm 0.00 W/m2
22:58 1 °C 0.4 °C 1019.2 hPa Calm     96% 0 mm 0.00 W/m2
23:03 0.9 °C 0.4 °C 1019.2 hPa Calm     96% 0 mm 0.00 W/m2
23:08 0.9 °C 0.3 °C 1019.2 hPa Calm     96% 0 mm 0.00 W/m2
23:13 0.9 °C 0.3 °C 1019.5 hPa ESE 1.6 km/h 3.2 km/h 96% 0 mm 0.00 W/m2
23:18 0.9 °C 0.4 °C 1019.5 hPa Calm   6.4 km/h 96% 0 mm 0.00 W/m2
23:23 1 °C 0.4 °C 1019.5 hPa NNW 1.6 km/h 3.2 km/h 96% 0 mm 0.00 W/m2
23:28 1 °C 0.4 °C 1019.5 hPa NNW 1.6 km/h 3.2 km/h 96% 0 mm 0.00 W/m2
23:33 1 °C 0.4 °C 1019.5 hPa North 1.6 km/h 4.8 km/h 96% 0 mm 0.00 W/m2
23:38 1 °C 0.4 °C 1019.5 hPa North 1.6 km/h 3.2 km/h 96% 0 mm 0.00 W/m2
23:43 1 °C 0.4 °C 1019.9 hPa North 1.6 km/h 3.2 km/h 96% 0 mm 0.00 W/m2
23:48 1.1 °C 0.5 °C 1019.9 hPa North 3.2 km/h 6.4 km/h 96% 0 mm 0.00 W/m2
23:53 1.1 °C 0.6 °C 1019.9 hPa Calm   6.4 km/h 96% 0 mm 0.00 W/m2
23:58 1.1 °C 0.6 °C 1019.9 hPa North 1.6 km/h 4.8 km/h 96% 0 mm 0.00 W/m2
Foresthill Weather
 WU-history PHP script courtesy of   Juneau County Weather.
powered by Cumulus v1.9.3 (1059)
Ambient Weather VWS v14.00
Top Contact Website Map Copyright © 2007 - 2018 Foresthillweather.com Never base important decisions on this or any weather information obtained from the Internet